Orbital Elements at Epoch 2459000.5 (2020-May-31.0) TDB
Reference: JPL 14 (heliocentric ecliptic J2000)
Element | Value | Uncertainty (1-sigma) | Units |
e | .2738951394198151 | 4.9484e-08 | |
a | 2.665848336829415 | 1.6826e-08 | au |
q | 1.93568543494144 | 1.3783e-07 | au |
i | 14.42435638522695 | 5.8762e-06 | deg |
node | 296.9418606743464 | 2.057e-05 | deg |
peri | 105.590134259229 | 2.4062e-05 | deg |
M | 271.2663391991116 | 1.3498e-05 | deg |
tp | 2459392.365908722542 (2021-Jun-26.86590872) | 6.2267e-05 | TDB |
period | 1589.833281607408 4.35 | 1.5051e-05 4.121e-08 | d yr |
n | .2264388374333317 | 2.1438e-09 | deg/d |
Q | 3.396011238717389 | 2.1434e-08 | au |
|
| | Orbit Determination Parameters
Additional Information
|